Bridgeport, WV

8:17 PM EST on February 05, 2016 (GMT -0500)
Benedum

Weather History for KCKB - January, 2014

Change the Weather History Date:

Wednesday, January 8, 2014

  Actual Average Record
Temperature  
Mean Temperature 19 °F -  
Max Temperature 30 °F 38 °F 69 °F (2008)
Min Temperature 8 °F 19 °F -15 °F (1942)
Degree Days  
Heating Degree Days 46    
Moisture  
Dew Point 6 °F    
Average Humidity 53    
Maximum Humidity 61    
Minimum Humidity 46    
Precipitation  
Precipitation 0.00 in - - ()
Sea Level Pressure  
Sea Level Pressure 30.47 in    
Wind  
Wind Speed 7 mph (SSW)    
Max Wind Speed 14 mph    
Max Gust Speed 21 mph    
Visibility 10 miles    
Events      
Averages and records for this station are not official NWS values.
T = Trace of Precipitation, MM = Missing Value Source: NWS Daily Summary

Daily Weather History Graph

Daily Weather History Graph

Search for Another Location

Airport or City:

Trip Planner

Search our weather history database for the weather conditions in past years. The results will help you decide how hot, cold, wet, or windy it might be!

Date:

Astronomy

Jan. 08, 2014 Rise Set
Actual Time 7:40 AM EST 5:14 PM EST
Civil Twilight 7:11 AM EST 5:44 PM EST
Nautical Twilight 6:37 AM EST 6:17 PM EST
Astronomical Twilight 6:05 AM EST 6:50 PM EST
Moon 12:05 PM EST (1/8) 12:45 AM EST (1/8)
Length of Visible Light 10h 33m
Length of Day
9h 34m
First Quarter, 56% of the Moon is Illuminated
Jan 8
First Quarter
Jan 15
Full
Jan 24
Last Quarter
Jan 30
New
Feb 6
First Quarter

Hourly Weather History & Observations

Time (EST) Temp. Windchill Dew Point Humidity Pressure Visibility Wind Dir Wind Speed Gust Speed Precip Events Conditions
12:53 AM 8.1 °F -2.0 °F -2.9 °F 61% 30.46 in 10.0 mi SSW 5.8 mph - N/A   Overcast
1:53 AM 9.0 °F -4.2 °F -2.9 °F 59% 30.47 in 10.0 mi SW 9.2 mph - N/A   Overcast
2:53 AM 10.0 °F 0.4 °F -2.0 °F 58% 30.47 in 10.0 mi SSW 5.8 mph - N/A   Overcast
3:53 AM 10.9 °F 1.4 °F -0.9 °F 59% 30.48 in 10.0 mi SSW 5.8 mph - N/A   Overcast
4:53 AM 10.9 °F 0.2 °F -0.9 °F 59% 30.48 in 10.0 mi SSW 6.9 mph - N/A   Overcast
5:53 AM 10.9 °F 1.4 °F -0.0 °F 61% 30.49 in 10.0 mi SSW 5.8 mph - N/A   Overcast
6:53 AM 10.0 °F 0.4 °F -0.9 °F 61% 30.50 in 10.0 mi SSW 5.8 mph - N/A   Clear
7:53 AM 10.0 °F 1.8 °F -2.0 °F 58% 30.52 in 10.0 mi SSW 4.6 mph - N/A   Clear
8:53 AM 12.9 °F 3.8 °F -0.0 °F 56% 30.54 in 10.0 mi SSW 5.8 mph - N/A   Clear
9:53 AM 16.0 °F 6.3 °F 1.0 °F 52% 30.54 in 10.0 mi SW 6.9 mph - N/A   Clear
10:53 AM 19.9 °F 9.3 °F 3.0 °F 48% 30.53 in 10.0 mi SW 9.2 mph - N/A   Overcast
11:53 AM 21.9 °F 9.8 °F 5.0 °F 48% 30.49 in 10.0 mi SSW 12.7 mph 18.4 mph N/A   Clear
12:53 PM 24.1 °F 12.0 °F 8.1 °F 51% 30.45 in 10.0 mi SSW 13.8 mph - N/A   Mostly Cloudy
1:53 PM 26.1 °F 14.5 °F 9.0 °F 49% 30.43 in 10.0 mi SSW 13.8 mph 20.7 mph N/A   Mostly Cloudy
2:53 PM 27.0 °F 18.0 °F 9.0 °F 47% 30.42 in 10.0 mi SW 9.2 mph - N/A   Mostly Cloudy
3:53 PM 28.0 °F 20.0 °F 10.0 °F 47% 30.43 in 10.0 mi SSW 8.1 mph - N/A   Mostly Cloudy
4:53 PM 28.0 °F 20.8 °F 10.9 °F 49% 30.43 in 10.0 mi SW 6.9 mph - N/A   Overcast
5:53 PM 28.0 °F 21.7 °F 12.0 °F 51% 30.44 in 10.0 mi SW 5.8 mph - N/A   Overcast
6:53 PM 28.9 °F 22.8 °F 12.9 °F 51% 30.45 in 10.0 mi SSW 5.8 mph - N/A   Overcast
7:53 PM 30.0 °F 20.5 °F 14.0 °F 51% 30.47 in 10.0 mi SW 11.5 mph - N/A   Overcast
8:53 PM 30.0 °F 26.5 °F 14.0 °F 51% 30.46 in 10.0 mi South 3.5 mph - N/A   Overcast
9:53 PM 30.9 °F - 14.0 °F 50% 30.46 in 10.0 mi Calm Calm - N/A   Overcast
10:53 PM 30.9 °F - 12.0 °F 46% 30.47 in 10.0 mi Calm Calm - N/A   Overcast
11:53 PM 30.9 °F - 12.9 °F 47% 30.46 in 10.0 mi Calm Calm - N/A   Overcast